This demonstration page uses our WeatherBlox Daily Observations layout. Learn more.

Left ArrowRight Arrow

39.51506, -84.39828

Hourly Observations for March 1, 2019

Temp ( °F °C ) Dew Point ( °F °C ) Humidity (%) Winds ( mph kmh ) Pressure ( in mb ) Visibility ( mi km ) Precip ( " mm )
12:15 am 00:15 Cloudy 30 -1 26 -3.3 85 85 NNE 8 13 30.17 1022 10 16 0.00 0.00
12:35 am 00:35 Cloudy 30 -1.1 26 -3.1 86 86 NNE 5 7 30.18 1022 10 16 0.00 0.00
12:55 am 00:55 Cloudy 30 -1.1 26 -3.1 86 86 NNE 5 7 30.17 1022 10 16 0.00 0.00
1:15 am 01:15 Cloudy 30 -1.1 27 -3 87 87 NNE 6 9 30.17 1022 10 16 0.00 0.00
1:35 am 01:35 Cloudy 30 -1 26 -3.3 85 85 NNE 6 9 30.17 1022 10 16 0.00 0.00
1:55 am 01:55 Cloudy 30 -1.2 26 -3.1 87 87 N 3 6 30.18 1022 10 16 0.00 0.00
2:15 am 02:15 Cloudy 30 -1.2 26 -3.1 87 87 N 3 6 30.19 1022 10 16 0.00 0.00
2:35 am 02:35 Cloudy 30 -1.3 26 -3.3 86 86 N 5 7 30.19 1022 10 16 0.00 0.00
2:55 am 02:55 Cloudy 29 -1.4 26 -3.3 87 87 N 5 7 30.19 1022 10 16 0.00 0.00
3:15 am 03:15 Cloudy 30 -1.3 26 -3.4 86 86 N 3 6 30.20 1023 10 16 0.00 0.00
3:35 am 03:35 Cloudy 30 -1.3 26 -3.3 86 86 NNE 5 7 30.19 1022 10 16 0.00 0.00
3:55 am 03:55 Cloudy 30 -1.3 26 -3.3 86 86 NNE 7 11 30.18 1022 10 16 0.00 0.00
4:15 am 04:15 Cloudy 30 -1.3 26 -3.4 86 86 NNE 9 15 30.16 1021 10 16 0.00 0.00
4:35 am 04:35 Cloudy 30 -1.3 26 -3.4 86 86 NNE 10 17 30.16 1021 10 16 0.00 0.00
4:55 am 04:55 Cloudy 30 -1.3 26 -3.5 85 85 NNE 7 11 30.18 1022 10 16 0.00 0.00
5:15 am 05:15 Cloudy 29 -1.4 26 -3.6 85 85 NNE 7 11 30.18 1022 10 16 0.00 0.00
5:35 am 05:35 Cloudy 30 -1.3 26 -3.5 85 85 NNE 6 9 30.19 1022 10 16 0.00 0.00
5:55 am 05:55 Cloudy 30 -1.2 26 -3.5 85 85 NE 6 9 30.19 1022 10 16 0.00 0.00
6:15 am 06:15 Cloudy 30 -1.2 25 -3.7 83 83 NE 9 15 30.19 1022 10 16 0.00 0.00
6:35 am 06:35 Cloudy 30 -1.2 25 -3.9 82 82 NNE 8 13 30.19 1022 10 16 0.00 0.00
6:55 am 06:55 Cloudy 29 -1.4 24 -4.4 80 80 NNE 9 15 30.19 1022 10 16 0.00 0.00
7:15 am 07:15 Cloudy 30 -1.3 24 -4.4 80 80 NNE 9 15 30.18 1022 10 16 0.00 0.00
7:35 am 07:35 Cloudy 30 -1.3 24 -4.5 79 79 NE 7 11 30.19 1022 10 16 0.00 0.00
7:55 am 07:55 Cloudy 30 -1.2 24 -4.3 80 80 NE 6 9 30.19 1022 10 16 0.00 0.00
8:15 am 08:15 Cloudy 30 -1 24 -4.5 77 77 NE 9 15 30.19 1022 10 16 0.00 0.00
8:35 am 08:35 Cloudy 31 -0.8 24 -4.6 76 76 NNE 8 13 30.20 1023 10 16 0.00 0.00
8:55 am 08:55 Cloudy 31 -0.6 24 -4.3 76 76 NE 8 13 30.20 1023 10 16 0.00 0.00
9:15 am 09:15 Cloudy 31 -0.3 25 -4.1 76 76 NE 7 11 30.20 1023 10 16 0.00 0.00
9:35 am 09:35 Cloudy 32 -0.1 25 -4.1 75 75 NE 7 11 30.20 1023 10 16 0.00 0.00
9:55 am 09:55 Cloudy 33 0.3 26 -3.6 75 75 NNE 7 11 30.19 1022 10 16 0.00 0.00
10:10 am 10:10 Cloudy 33 0.4 25 -3.7 74 74 NE 6 9 30.19 1022 10 16 0.00 0.00
10:35 am 10:35 Cloudy 34 1 26 -3.3 73 73 NE 8 13 30.19 1022 10 16 0.00 0.00
10:55 am 10:55 Cloudy 35 1.5 28 -2.5 75 75 NNE 7 11 30.18 1022 10 16 0.00 0.00
11:15 am 11:15 Cloudy 36 2 27 -2.6 72 72 ENE 8 13 30.18 1022 10 16 0.00 0.00
11:35 am 11:35 Cloudy 36 2.4 27 -2.7 69 69 ENE 10 17 30.17 1022 10 16 0.00 0.00
11:55 am 11:55 Cloudy 37 2.9 28 -2.4 68 68 NE 12 19 30.18 1022 10 16 0.00 0.00
12:15 pm 12:15 Cloudy 38 3.3 27 -2.6 66 66 NE 5 7 30.17 1022 10 16 0.00 0.00
12:35 pm 12:35 Cloudy 39 3.8 28 -2.5 64 64 E 8 13 30.16 1021 10 16 0.00 0.00
12:55 pm 12:55 Cloudy 39 3.9 27 -2.7 62 62 NE 8 13 30.15 1021 10 16 0.00 0.00
1:15 pm 13:15 Cloudy 40 4.3 27 -2.7 61 61 ENE 8 13 30.13 1020 10 16 0.00 0.00
1:35 pm 13:35 Cloudy 40 4.5 27 -2.7 60 60 NE 9 15 30.11 1020 10 16 0.00 0.00
1:55 pm 13:55 Cloudy 40 4.7 27 -2.8 59 59 NE 8 13 30.10 1019 10 16 0.00 0.00
2:15 pm 14:15 Cloudy 41 5 27 -2.9 57 57 ENE 7 11 30.09 1019 10 16 0.00 0.00
2:35 pm 14:35 Cloudy 42 5.3 27 -2.6 57 57 NNE 3 6 30.08 1019 10 16 0.00 0.00
2:55 pm 14:55 Cloudy 42 5.4 28 -2.3 58 58 ESE 6 9 30.08 1019 10 16 0.00 0.00
3:15 pm 15:15 Cloudy 42 5.5 28 -2.2 58 58 NE 6 9 30.07 1018 10 16 0.00 0.00
3:35 pm 15:35 Cloudy 42 5.8 28 -2 58 58 ENE 10 17 30.07 1018 10 16 0.00 0.00
3:55 pm 15:55 Cloudy 42 5.7 28 -2 58 58 ENE 10 17 30.07 1018 10 16 0.00 0.00
4:15 pm 16:15 Cloudy 42 5.6 28 -2 58 58 ENE 9 15 30.07 1018 10 16 0.00 0.00
4:35 pm 16:35 Cloudy 42 5.7 29 -1.8 59 59 E 10 17 30.07 1018 10 16 0.00 0.00
4:55 pm 16:55 Cloudy 42 5.6 29 -1.7 60 60 ENE 8 13 30.07 1018 10 16 0.00 0.00
5:15 pm 17:15 Cloudy 42 5.5 29 -1.8 60 60 ENE 7 11 30.08 1019 10 16 0.00 0.00
5:35 pm 17:35 Cloudy 42 5.4 29 -1.6 61 61 ENE 3 6 30.09 1019 10 16 0.00 0.00
5:55 pm 17:55 Cloudy 42 5.3 29 -1.5 62 62 ENE 5 7 30.09 1019 10 16 0.00 0.00
6:15 pm 18:15 Cloudy 42 5.3 30 -1.3 63 63 Calm 30.09 1019 10 16 0.00 0.00
6:35 pm 18:35 Cloudy 41 5 30 -0.9 66 66 Calm 30.08 1019 10 16 0.00 0.00
6:55 pm 18:55 Cloudy 41 4.9 30 -1 66 66 Calm 30.08 1019 10 16 0.00 0.00
7:15 pm 19:15 Cloudy 40 4.7 30 -1 67 67 Calm 30.09 1019 10 16 0.00 0.00
7:35 pm 19:35 Cloudy 41 4.8 31 -0.6 68 68 Calm 30.09 1019 10 16 0.00 0.00
7:55 pm 19:55 Cloudy 39 4.1 32 0.1 75 75 W 3 6 30.10 1019 10 16 0.00 0.00
8:15 pm 20:15 Cloudy 40 4.2 32 0.1 75 75 Calm 30.09 1019 10 16 0.00 0.00
8:35 pm 20:35 Cloudy 40 4.2 31 -0.3 73 73 NNW 3 6 30.09 1019 10 16 0.00 0.00
8:55 pm 20:55 Cloudy 39 3.9 26 -3.4 59 59 N 5 7 30.11 1020 10 16 0.00 0.00
9:15 pm 21:15 Cloudy 38 3.5 25 -3.9 59 59 N 6 9 30.13 1020 10 16 0.00 0.00
9:35 pm 21:35 Cloudy 38 3.2 25 -3.8 60 60 Calm 30.13 1020 10 16 0.00 0.00
9:55 pm 21:55 Cloudy 38 3.1 25 -4 60 60 N 3 6 30.14 1021 10 16 0.00 0.00
10:15 pm 22:15 Cloudy 37 2.9 24 -4.2 60 60 N 5 7 30.14 1021 10 16 0.00 0.00
10:35 pm 22:35 Cloudy 37 2.8 25 -4 61 61 NNE 3 6 30.14 1021 10 16 0.00 0.00
10:55 pm 22:55 Cloudy 37 2.7 25 -4.1 61 61 N 5 7 30.14 1021 10 16 0.00 0.00
11:15 pm 23:15 Cloudy 37 2.6 25 -4.1 62 62 N 3 6 30.14 1021 10 16 0.00 0.00
11:35 pm 23:35 Cloudy 36 2.4 24 -4.2 62 62 N 3 6 30.14 1021 10 16 0.00 0.00
11:55 pm 23:55 Cloudy 36 2.3 24 -4.3 62 62 N 3 6 30.13 1020 10 16 0.00 0.00

Powered by AerisWeather